Regional Weather Roundup
Issued by NWS Green Bay, WI

Home | Current Version | Previous Version | Graphics & Text | Print | Product List | Glossary Off
Versions: 1 2 3 4 5 6 7 8 9 10 11 12 13 14 15 16 17 18 19 20 21 22 23 24 25 26 27 28 29 30 31 32 33 34 35 36 37 38 39 40 41 42 43 44 45 46 47 48 49 50

000
ASUS43 KGRB 230000
RWRGRB

NORTH-CENTRAL AND NORTHEAST WISCONSIN REGIONAL WEATHER ROUNDUP
NATIONAL WEATHER SERVICE GREEN BAY WI
600 PM CST WED FEB 22 2017

WIZ005-009-010>012-018-019-230100-
NORTH CENTRAL WISCONSIN

CITY           SKY/WX    TMP DP  RH WIND       PRES   REMARKS
IRONWOOD       CLOUDY    40  34  79 N3        29.58R
MANITOWISH WTR NOT AVBL
ARBOR VITAE    NOT AVBL
EAGLE RIVER    NOT AVBL
LAND O LAKES   NOT AVBL
RHINELANDER    CLOUDY    45  42  89 SE7       29.54R
PHILLIPS       CLOUDY    44  44  99 NW5       29.57R
ANTIGO         NOT AVBL
TOMAHAWK       NOT AVBL
MERRILL        NOT AVBL
$$

WIZ013-073-230100-
NORTHEAST WISCONSIN

CITY           SKY/WX    TMP DP  RH WIND       PRES   REMARKS
IRON MOUNTAIN  CLOUDY    46  39  76 CALM      29.53F
MARINETTE      CLOUDY    41  38  89 SE6       29.56F
$$

WIZ017-030-035>037-045-230100-
CENTRAL WISCONSIN

CITY           SKY/WX    TMP DP  RH WIND       PRES   REMARKS
MEDFORD        NOT AVBL
WAUSAU         CLOUDY    50  38  63 NW5       29.54R
MOSINEE        MOCLDY    48  39  71 W5        29.56R
MARSHFIELD     MOCLDY    48  41  76 NW7       29.54R
WISC RAPIDS    PTCLDY    50  37  61 CALM      29.54F
STEVENS POINT  NOT AVBL
WAUPACA        NOT AVBL
SHAWANO        CLOUDY    51  40  64 CALM      29.56R
CLINTONVILLE   NOT AVBL
WAUTOMA        PTCLDY    56  39  53 N6        29.55R
$$

WIZ038-039-048-051-230100-
FOX VALLEY

CITY           SKY/WX    TMP DP  RH WIND       PRES   REMARKS
NWS GREEN BAY  CLOUDY    55  47  74 NE6       29.56R
APPLETON       MOCLDY    55  37  50 VRB5      29.54R
OSHKOSH        MOCLDY    61  50  67 W3        29.53R
FOND DU LAC    CLOUDY    61  47  59 CALM      29.53R
$$

WIZ022-050-052-230100-
EAST CENTRAL WISCONSIN

CITY           SKY/WX    TMP DP  RH WIND       PRES   REMARKS
EPHRAIM        NOT AVBL
WASHINGTON ISL NOT AVBL
STURGEON BAY   CLOUDY    42  40  92 E9        29.57S
MANITOWOC      NOT AVBL
SHEBOYGAN      CLOUDY    50  44  80 CALM      29.53R
$$

LMZ563-521-522-541>543-230100-
LAKESHORE

STATION/POSITION TIME  TEMP    WIND        PRES    VSBY  WAVE
                       AIR SEA DIR/SP/G                  HT/PER
                 (UTC) (F)     (DEG/KT/KT) (MB)    (MI)  (FT/S)
SHEBOYGAN LKSHOR 2300   44     180/ 17/ 19  999.9R
KEWAUNEE LKSHORE 2330   39      CALM  /  2 1000.9R
ALGOMA MARINA    2310           90/  6/  7   N/A
NORTHPORT PIER   2340   38     310/  2/  4 1002.4R
SISTER BAY LKSHO 2305   42      10/ 10/ 10   N/A
CHAMBERS ISLAND  2340   39      50/  7/ 10 1001.0F
MENOMINEE LKSHOR 2330   36      30/ 13/ 15 1000.3F
$$




USA.gov is the U.S. government's official web portal to all federal, state and local government web resources and services.